Location: Amsterdam
(30.7274°N, 84.4357°W)
Time: 20:57:11
(UTC+00:00)

Explorer 11/Cluster Stage 4 - Pass Details

Date: 23 February 2026
Orbit: 463 x 1176 km, 28.8° (Epoch: 7 March)

Event Time Altitude Azimuth Distance (km) Brightness Sun altitude
Rises 14:14:34 0° 222° (SW) 3,821 10.0 24.2°
Reaches altitude 10° 14:17:59 10° 210° (SSW) 2,757 9.4 24.9°
Maximum altitude 14:23:14 25° 158° (SSE) 1,730 9.4 25.9°
Drops below altitude 10° 14:27:47 10° 105° (ESE) 2,356 10.6 26.7°
Sets 14:30:27 0° 91° (E) 3,156 10.6 27.2°
